239P/LINEAR (2019)

Japanese version
Home page
Updated on October 28, 2018

---------------------------------------------------------------------

* Profile

* Orbital Elements

Epoch 2018 Dec. 28.0 TT = JDT 2458480.5
T 2019 Jan. 10.15946 TT                                 MPCW
q   1.6494744            (2000.0)            P               Q
n   0.10426230     Peri.  220.37820     -0.43066722     -0.88225379
a   4.4707925      Node   255.90828     +0.87031632     -0.35021327
e   0.6310555      Incl.   11.30557     +0.23890428     -0.31460914
P   9.45
From 77 observations 1999 Nov. 14-2018 Oct. 10, mean residual 0".5.

* Finding Charts

* Magnitudes Graph

        m1 = 15.5 + 5 log d + 10 log r

---------------------------------------------------------------------

The orbital elements are published on M.P.E.C. 2018-U70.
The charts are made with StellaNavigator Ver.10 (AstroArts).
The magnitudes graphs are made with Comet for Windows.

---------------------------------------------------------------------

Copyright(C) Seiichi Yoshida (comet@aerith.net). All rights reserved.